User: anonymous   Login
Location: Unspecified
(0.0000°N, 0.0000°E)
Time: 23:41:50
(UTC+01:00)
Language:

Ariane H10 - Orbit

View from above orbital plane
View from above orbital plane
View from above satellite
View from above satellite

Ground track
Ground track

The orbit data is extracted from the following two-line orbital elements,

1 21727U 91067B   14354.41380094  .00000494  00000-0  16116-2 0  3301
2 21727 004.5411 346.6341 7191953 129.3965 005.0864 02.31447498156842
Epoch (UTC): 20 December 2014 09:55:52
Eccentricity: 0.7191953
inclination: 4.5411°
perigee height: 401 km
apogee height: 35126 km
right ascension of ascending node: 346.6341°
argument of perigee: 129.3965°
revolutions per day: 2.31447498
mean anomaly at epoch: 5.0864°
orbit number at epoch: 15684

The dashed part of the orbit path shows where the satellite is in the earth's shadow,  

DLR